Vorticity
4 4 3 2 3 3 2 2 2 2 1 2 5 4 4 5 5 3 3 1 5 6 6 4 2 -0 3 0 1 -1 5 5 6 6 3 3 2 6
3 4 3 3 3 4 4 4 4 3 2 2 2 3 5 7 8 5 3 3 3 8 10 9 6 6 1 4 7 -0 2 8 5 6 6 5 5 3
5 4 4 4 3 3 3 3 3 4 3 2 1 2 1 4 9 9 6 5 3 3 5 6 6 9 9 2 3 9 10 5 5 7 5 5 6 5
10 9 8 7 6 5 6 6 6 6 5 4 4 3 3 3 0 3 9 9 4 1 -1 2 3 2 2 4 6 6 9 9 6 7 8 5 4 5
10 9 8 8 6 6 7 7 7 7 6 6 5 6 7 10 11 4 -2 6 7 7 10 12 12 10 10 12 12 14 10 11 9 6 7 8 7 4
8 8 8 8 9 10 8 9 8 7 7 9 10 9 10 8 6 10 11 12 11 12 11 12 9 6 6 5 7 7 8 8 11 11 9 7 7 6
6 6 6 6 6 6 6 6 6 7 8 8 8 9 9 7 8 8 9 6 9 8 11 13 10 9 9 7 5 13 7 5 7 8 12 11 9 8
9 9 10 10 10 10 11 12 12 11 10 10 10 9 9 12 13 12 11 14 16 12 10 10 12 14 17 16 12 9 5 8 11 7 8 11 12 10
15 13 12 11 11 10 10 11 11 12 12 11 11 11 11 12 13 13 13 12 8 7 12 14 15 15 16 18 18 16 18 16 21 16 9 9 11 11
13 14 14 15 15 13 12 11 11 11 12 12 13 12 15 14 12 14 12 11 17 17 16 16 15 16 14 15 17 20 23 24 12 11 19 18 8 14
13 14 13 14 16 18 21 21 20 19 16 17 17 17 17 15 16 19 17 15 15 12 11 11 11 12 12 14 18 18 16 12 17 17 14 12 11 11
13 11 11 12 12 13 13 13 13 12 13 13 14 16 17 15 12 12 12 12 12 13 12 15 14 13 11 15 15 15 13 15 17 15 13 12 10 8
18 18 13 12 10 11 12 11 12 12 12 13 13 11 10 11 11 12 11 12 11 11 11 13 14 16 15 15 12 14 15 13 15 15 14 14 13 14
13 13 17 17 15 14 12 11 12 11 10 11 11 12 12 11 8 8 9 9 10 11 11 14 15 14 14 15 16 12 7 7 12 12 5 6 5 2
9 12 12 12 12 13 14 13 13 12 12 11 10 9 9 10 10 11 12 13 14 13 13 14 14 10 11 15 13 7 8 10 11 11 6 7 11 3
7 8 8 8 9 10 11 11 12 12 10 10 9 9 10 10 11 13 13 13 15 13 13 11 5 7 9 7 8 5 8 10 13 16 17 19 21 23
11 8 7 9 11 12 13 13 12 12 12 12 14 13 13 13 14 13 15 15 14 14 4 2 6 7 10 7 7 23 24 25 21 16 11 16 14 10
11 14 14 12 12 14 14 12 12 12 13 14 14 13 12 12 11 14 13 12 7 3 8 10 10 9 1 19 21 18 19 18 9 9 13 16 6 4
6 8 10 11 11 10 10 12 13 13 13 13 14 15 14 12 12 11 8 8 4 15 9 6 9 8 20 17 11 14 11 10 26 42 48 32 28 36
8 7 6 7 7 7 8 7 7 8 9 7 9 10 15 14 11 9 8 10 7 9 8 6 16 25 22 5 7 27 42 46 62 54 43 37 46 44
11 10 9 8 7 7 7 7 8 7 6 6 7 9 12 14 13 10 9 12 12 4 -3 8 20 10 30 13 11 30 19 23 23 43 53 47 48 49
11 9 12 10 8 7 7 7 7 7 8 8 9 7 11 13 11 11 12 12 12 2 -4 16 13 10 12 14 21 26 15 32 27 28 27 26 26 30
10 11 9 11 12 11 11 10 10 8 9 8 11 8 10 11 12 8 15 10 7 5 -3 10 17 29 13 -11 -9 -12 37 22 33 32 20 26 19 25
Height
5720 5724 5728 5732 5735 5738 5742 5744 5748 5750 5753 5754 5757 5759 5761 5763 5766 5768 5770 5772 5773 5774 5776 5777 5780 5781 5783 5783 5784 5784 5785 5787 5788 5789 5790 5791 5792 5793
5706 5709 5713 5716 5720 5723 5727 5729 5733 5736 5739 5741 5743 5745 5747 5748 5750 5753 5755 5758 5759 5760 5762 5764 5766 5767 5768 5770 5770 5771 5771 5772 5775 5777 5779 5780 5781 5783
5689 5693 5697 5701 5704 5707 5710 5713 5716 5719 5723 5726 5727 5729 5732 5734 5734 5734 5737 5740 5743 5745 5747 5749 5751 5752 5753 5754 5755 5756 5757 5758 5759 5761 5763 5766 5768 5769
5672 5676 5679 5683 5686 5689 5693 5695 5699 5701 5705 5709 5710 5712 5714 5715 5717 5718 5719 5721 5724 5727 5729 5732 5734 5735 5736 5737 5738 5739 5741 5742 5743 5744 5746 5749 5752 5754
5653 5657 5660 5664 5668 5671 5674 5677 5679 5682 5685 5690 5693 5693 5695 5696 5698 5700 5702 5704 5705 5707 5708 5710 5711 5713 5715 5718 5719 5721 5722 5723 5725 5727 5728 5731 5734 5737
5633 5637 5641 5645 5648 5652 5655 5657 5660 5663 5666 5669 5673 5675 5676 5677 5678 5681 5682 5683 5685 5686 5688 5689 5690 5692 5694 5696 5697 5699 5702 5703 5704 5706 5708 5711 5714 5718
5615 5618 5622 5626 5629 5632 5635 5638 5641 5644 5647 5649 5652 5653 5655 5656 5658 5659 5662 5664 5665 5664 5667 5669 5670 5672 5673 5673 5674 5675 5676 5680 5684 5686 5689 5692 5695 5698
5596 5600 5603 5607 5610 5613 5616 5619 5622 5625 5627 5628 5630 5633 5635 5637 5637 5639 5641 5643 5647 5645 5645 5652 5646 5650 5650 5650 5650 5651 5654 5656 5659 5664 5668 5671 5674 5677
5579 5582 5585 5589 5592 5595 5598 5601 5604 5606 5607 5608 5611 5613 5615 5615 5617 5619 5620 5623 5626 5625 5623 5632 5622 5627 5625 5627 5628 5629 5630 5632 5635 5639 5643 5648 5653 5656
5561 5564 5568 5570 5573 5577 5580 5584 5585 5587 5587 5590 5593 5595 5595 5595 5596 5598 5601 5603 5605 5604 5600 5609 5604 5607 5604 5606 5607 5608 5609 5610 5612 5615 5619 5623 5628 5633
5544 5547 5550 5553 5556 5560 5565 5566 5567 5568 5569 5572 5574 5575 5576 5577 5577 5579 5581 5583 5586 5585 5583 5583 5584 5586 5587 5590 5588 5586 5588 5590 5593 5595 5597 5600 5604 5605
5528 5530 5533 5536 5539 5542 5546 5548 5550 5550 5553 5554 5555 5557 5558 5559 5560 5561 5564 5566 5566 5568 5565 5562 5564 5562 5568 5570 5570 5570 5570 5570 5572 5575 5578 5580 5579 5581
5510 5514 5517 5520 5523 5525 5529 5532 5534 5535 5536 5538 5539 5540 5542 5544 5545 5545 5547 5548 5548 5548 5545 5544 5546 5545 5544 5549 5552 5551 5550 5551 5552 5553 5555 5557 5558 5558
5496 5499 5501 5504 5507 5510 5513 5516 5519 5521 5522 5523 5525 5525 5527 5528 5528 5529 5530 5529 5529 5529 5527 5525 5527 5524 5524 5529 5531 5529 5529 5530 5530 5531 5533 5533 5532 5532
5481 5485 5487 5490 5492 5495 5497 5500 5503 5506 5508 5509 5510 5511 5512 5513 5512 5513 5513 5513 5513 5509 5508 5507 5506 5506 5506 5508 5509 5509 5506 5505 5503 5505 5504 5503 5503 5502
5468 5471 5473 5476 5478 5481 5483 5486 5489 5491 5492 5494 5495 5496 5496 5497 5496 5497 5497 5496 5497 5494 5491 5489 5488 5487 5488 5486 5483 5483 5477 5476 5472 5470 5465 5467 5469 5470
5452 5456 5459 5462 5465 5467 5470 5472 5474 5476 5477 5479 5481 5481 5482 5482 5481 5482 5482 5482 5481 5480 5478 5472 5468 5467 5467 5463 5459 5452 5446 5444 5441 5437 5432 5434 5436 5438
5437 5441 5445 5448 5451 5454 5456 5459 5460 5462 5464 5466 5467 5468 5467 5468 5468 5467 5468 5467 5466 5464 5463 5458 5454 5449 5445 5442 5428 5427 5421 5415 5406 5400 5393 5393 5399 5402
5422 5427 5430 5434 5437 5441 5444 5445 5448 5450 5452 5453 5453 5454 5454 5454 5455 5455 5454 5454 5453 5451 5447 5443 5437 5431 5427 5423 5414 5391 5386 5382 5364 5352 5343 5341 5345 5358
5406 5411 5416 5420 5424 5427 5431 5433 5436 5438 5440 5441 5442 5442 5442 5442 5442 5442 5441 5441 5440 5438 5434 5427 5420 5414 5408 5402 5396 5378 5350 5337 5325 5316 5309 5302 5307 5314
5390 5395 5401 5405 5409 5414 5417 5421 5423 5426 5427 5429 5430 5430 5430 5430 5429 5429 5429 5428 5428 5426 5421 5413 5404 5396 5390 5382 5370 5353 5338 5321 5309 5296 5289 5284 5284 5281
5374 5380 5385 5390 5394 5399 5404 5407 5410 5413 5414 5416 5417 5418 5418 5418 5417 5417 5416 5417 5415 5414 5410 5402 5391 5383 5376 5366 5352 5338 5323 5308 5297 5289 5282 5275 5270 5267
5357 5364 5370 5375 5380 5385 5390 5393 5397 5399 5401 5403 5404 5406 5406 5405 5405 5405 5405 5404 5404 5402 5398 5392 5381 5372 5366 5356 5343 5331 5316 5303 5292 5283 5276 5268 5264 5262